Weather History for KGYH - April, 2013

Change the Weather History Date:

Tuesday, April 23, 2013

  Actual Average (KGSP) Record (KGSP)
Temperature  
Mean Temperature 58 °F 62 °F  
Max Temperature 71 °F 75 °F 91 °F (1963)
Min Temperature 46 °F 50 °F 32 °F (1982)
Degree Days  
Heating Degree Days 6 4  
Month to date heating degree days 148  
Since 1 July heating degree days 2981  
Cooling Degree Days 0 2  
Month to date cooling degree days 27  
Year to date cooling degree days 35  
Growing Degree Days 8 (Base 50)    
Moisture  
Dew Point 39 °F    
Average Humidity 53    
Maximum Humidity 72    
Minimum Humidity 35    
Precipitation  
Precipitation 0.00 in 0.11 in 1.76 in (1912)
Month to date precipitation 2.58  
Year to date precipitation 14.89  
Snow  
Snow 0.00 in 0.00 in 0.00 in ()
Month to date snowfall 0.0  
Since 1 July snowfall 4.7  
Snow Depth -    
Sea Level Pressure  
Sea Level Pressure 30.20 in    
Wind  
Wind Speed 6 mph (ENE)    
Max Wind Speed 12 mph    
Max Gust Speed 20 mph    
Visibility 10 miles    
Events      
T = Trace of Precipitation, MM = Missing Value Source: NWS Daily Summary

Daily Weather History Graph

Daily Weather History Graph

Search for Another Location

Airport or City:

Trip Planner

Search our weather history database for the weather conditions in past years. The results will help you decide how hot, cold, wet, or windy it might be!

Date:

Astronomy

Apr. 23, 2013 Rise Set
Actual Time 6:47 AM EDT 8:08 PM EDT
Civil Twilight 6:21 AM EDT 8:34 PM EDT
Nautical Twilight 5:49 AM EDT 9:06 PM EDT
Astronomical Twilight 5:16 AM EDT 9:39 PM EDT
Moon 6:06 PM EDT (4/23) 5:09 AM EDT (4/23)
Length of Visible Light 14h 13m
Length of Day
13h 20m
Waxing Gibbous, 94% of the Moon is Illuminated
Apr 23
Waxing Gibbous
Apr 25
Full
May 2
Last Quarter
May 9
New
May 18
First Quarter

Hourly Weather History & Observations

Time (EDT) Temp. Windchill Dew Point Humidity Pressure Visibility Wind Dir Wind Speed Gust Speed Precip Events Conditions
12:15 AM 51.8 °F - 32.0 °F 47% 30.27 in 10.0 mi NNE 4.6 mph - N/A   Clear
12:35 AM 51.8 °F - 32.0 °F 47% 30.27 in 10.0 mi NNE 5.8 mph - N/A   Clear
12:55 AM 51.8 °F - 32.0 °F 47% 30.26 in 10.0 mi NNE 5.8 mph - N/A   Clear
1:15 AM 50.0 °F - 33.8 °F 54% 30.26 in 10.0 mi NNE 5.8 mph - N/A   Clear
1:35 AM 50.0 °F - 33.8 °F 54% 30.25 in 10.0 mi NNE 5.8 mph - N/A   Clear
1:55 AM 50.0 °F - 32.0 °F 50% 30.25 in 10.0 mi NNE 5.8 mph - N/A   Clear
2:35 AM 50.0 °F - 32.0 °F 50% 30.24 in 10.0 mi NNE 5.8 mph - N/A   Clear
2:55 AM 50.0 °F - 32.0 °F 50% 30.23 in 10.0 mi NNE 5.8 mph - N/A   Clear
3:15 AM 48.2 °F - 32.0 °F 54% 30.23 in 10.0 mi NNE 5.8 mph - N/A   Clear
3:35 AM 48.2 °F - 32.0 °F 54% 30.23 in 10.0 mi NNE 5.8 mph - N/A   Clear
3:55 AM 48.2 °F - 32.0 °F 54% 30.23 in 10.0 mi NNE 4.6 mph - N/A   Clear
4:15 AM 48.2 °F - 32.0 °F 54% 30.23 in 10.0 mi NNE 4.6 mph - N/A   Clear
4:35 AM 46.4 °F 44.3 °F 32.0 °F 57% 30.23 in 10.0 mi NNE 4.6 mph - N/A   Clear
4:55 AM 46.4 °F 44.3 °F 32.0 °F 57% 30.23 in 10.0 mi NNE 4.6 mph - N/A   Clear
5:15 AM 46.4 °F 44.3 °F 32.0 °F 57% 30.23 in 10.0 mi NNE 4.6 mph - N/A   Clear
5:35 AM 46.4 °F 42.9 °F 32.0 °F 57% 30.22 in 10.0 mi NE 6.9 mph - N/A   Clear
5:55 AM 46.4 °F 42.9 °F 32.0 °F 57% 30.22 in 10.0 mi NNE 6.9 mph - N/A   Clear
6:15 AM 46.4 °F 45.2 °F 33.8 °F 62% 30.23 in 10.0 mi NNE 3.5 mph - N/A   Clear
6:35 AM 46.4 °F 43.5 °F 33.8 °F 62% 30.23 in 10.0 mi NE 5.8 mph - N/A   Clear
6:47 AM 48.2 °F - 33.8 °F 58% 30.23 in 10.0 mi NE 5.8 mph - N/A   Clear
7:47 AM 48.2 °F - 35.6 °F 62% 30.23 in 10.0 mi ENE 8.1 mph - N/A   Clear
8:47 AM 53.6 °F - 37.4 °F 54% 30.26 in 10.0 mi NE 8.1 mph - N/A   Clear
9:47 AM 55.4 °F - 39.2 °F 54% 30.25 in 10.0 mi ENE 11.5 mph 19.6 mph N/A   Clear
10:47 AM 59.0 °F - 42.8 °F 55% 30.25 in 10.0 mi ENE 11.5 mph - N/A   Clear
11:47 AM 62.6 °F - 42.8 °F 48% 30.25 in 10.0 mi East 8.1 mph - N/A   Clear
12:47 PM 64.4 °F - 44.6 °F 49% 30.22 in 10.0 mi ENE 5.8 mph - N/A   Clear
1:47 PM 66.2 °F - 42.8 °F 43% 30.19 in 10.0 mi Calm Calm - N/A   Clear
2:47 PM 69.8 °F - 44.6 °F 40% 30.17 in 10.0 mi Calm Calm - N/A   Clear
3:47 PM 71.6 °F - 42.8 °F 35% 30.14 in 10.0 mi SSE 5.8 mph - N/A   Clear
4:47 PM 71.6 °F - 42.8 °F 35% 30.13 in 10.0 mi SSW 6.9 mph - N/A   Clear
5:47 PM 71.6 °F - 42.8 °F 35% 30.11 in 10.0 mi SSW 3.5 mph - N/A   Clear
6:47 PM 71.6 °F - 42.8 °F 35% 30.11 in 10.0 mi SSE 8.1 mph - N/A   Clear
7:47 PM 69.8 °F - 42.8 °F 38% 30.11 in 10.0 mi South 5.8 mph - N/A   Clear
8:47 PM 66.2 °F - 46.4 °F 49% 30.11 in 10.0 mi South 4.6 mph - N/A   Clear
9:15 PM 59.0 °F - 46.4 °F 63% 30.13 in 10.0 mi SW 3.5 mph - N/A   Clear
9:35 PM 60.8 °F - 46.4 °F 59% 30.14 in 10.0 mi SW 3.5 mph - N/A   Clear
9:55 PM 60.8 °F - 46.4 °F 59% 30.14 in 10.0 mi SSW 6.9 mph - N/A   Clear
10:15 PM 60.8 °F - 46.4 °F 59% 30.15 in 10.0 mi South 8.1 mph - N/A   Clear
10:35 PM 60.8 °F - 48.2 °F 63% 30.14 in 10.0 mi South 6.9 mph - N/A   Clear
10:55 PM 60.8 °F - 50.0 °F 68% 30.14 in 10.0 mi South 6.9 mph - N/A   Clear
11:15 PM 60.8 °F - 50.0 °F 68% 30.15 in 10.0 mi South 5.8 mph - N/A   Clear
11:35 PM 59.0 °F - 50.0 °F 72% 30.14 in 10.0 mi South 5.8 mph - N/A   Clear
11:55 PM 59.0 °F - 50.0 °F 72% 30.14 in 10.0 mi South 4.6 mph - N/A   Clear